CW1291 Weather Reports


Display with metric or nautical units.
time (UTC)temp
F
wind
direction
speed
MPH
gust
MPH
rain 1hr
in
rain 24hr
in
rain mn
in
humidity
%
barometer
mb
20200120052433 19 324 2.0 3.0 0.00 0.06 0.00 83 1021.3
20200120050533 19 336 2.0 4.0 0.00 0.08 0.00 82 1021.3
20200120044434 19 323 4.0 9.0 0.00 0.11 0.00 82 1021.3
20200120043433 19 327 3.0 6.0 0.00 0.12 0.00 82 1021.3
20200120042433 19 326 2.0 5.0 0.00 0.13 0.00 82 1021.0
20200120041433 19 354 3.0 8.0 0.00 0.15 0.00 82 1021.0
20200120034433 20 308 3.0 6.0 0.00 0.21 0.00 80 1020.7
20200120033433 20 323 3.0 9.0 0.00 0.22 0.00 80 1020.3
20200120032433 20 202 5.0 8.0 0.00 0.23 0.00 80 1020.3
20200120031433 20 299 4.0 9.0 0.00 0.23 0.00 80 1020.0
20200120030433 20 180 4.0 5.0 0.00 0.23 0.00 80 1020.0
20200120025434 20 340 3.0 6.0 0.00 0.23 0.00 80 1019.6
20200120024434 20 171 3.0 6.0 0.00 0.23 0.00 82 1019.6
20200120023433 19 307 2.0 4.0 0.00 0.23 0.00 82 1019.3
20200120020433 19 317 4.0 6.0 0.00 0.23 0.00 82 1019.0
20200120015433 19 341 3.0 5.0 0.00 0.23 0.00 84 1019.0
20200120014433 19 297 3.0 6.0 0.00 0.23 0.00 83 1018.6
20200120013434 19 179 3.0 5.0 0.00 0.23 0.00 84 1018.6
20200120012433 19 325 3.0 8.0 0.00 0.23 0.00 84 1018.6
20200120010433 19 317 4.0 8.0 0.00 0.23 0.00 88 1018.3
20200120002433 18 313 3.0 4.0 0.00 0.23 0.00 90 1017.6
20200120000433 18 297 3.0 8.0 0.00 0.23 0.00 89 1016.9
20200119235433 18 322 3.0 5.0 0.00 0.23 0.00 89 1016.9
20200119230433 18 321 5.0 6.0 0.00 0.23 0.00 87 1015.9
20200119225433 18 172 5.0 11.0 0.00 0.23 0.00 88 1015.6
20200119224433 19 346 4.0 6.0 0.00 0.23 0.00 89 1015.2
20200119223433 19 324 4.0 8.0 0.00 0.23 0.00 89 1015.2
20200119222434 19 302 5.0 8.0 0.00 0.23 0.00 88 1014.6
20200119220433 20 304 5.0 10.0 0.00 0.23 0.00 84 1014.2
20200119211433 21 335 6.0 10.0 0.00 0.23 0.00 82 1012.9
20200119210433 21 325 7.0 11.0 0.00 0.23 0.00 81 1012.9
20200119205433 22 323 5.0 13.0 0.00 0.23 0.00 80 1012.5
20200119204433 22 251 5.0 11.0 0.00 0.23 0.00 82 1012.2
20200119202434 21 357 7.0 10.0 0.00 0.23 0.00 84 1011.8
20200119201433 22 287 4.0 11.0 0.00 0.23 0.00 84 1011.5
20200119200433 23 290 5.0 10.0 0.00 0.23 0.00 84 1011.5
20200119195433 23 317 5.0 9.0 0.00 0.23 0.00 84 1011.5
20200119194433 23 321 6.0 10.0 0.00 0.23 0.00 84 1011.2
20200119192433 23 304 7.0 11.0 0.00 0.23 0.00 85 1010.5
20200119182433 25 340 5.0 8.0 0.00 0.23 0.00 89 1009.5
20200119180433 26 323 5.0 8.0 0.00 0.23 0.00 91 1009.1
20200119175433 26 266 5.0 8.0 0.00 0.23 0.00 91 1009.1
20200119173433 26 305 6.0 10.0 0.00 0.23 0.00 92 1009.1
20200119171434 27 305 3.0 8.0 0.00 0.23 0.00 91 1008.8
20200119170433 27 277 5.0 9.0 0.00 0.23 0.00 91 1008.8
20200119164433 27 260 7.0 11.0 0.00 0.23 0.00 89 1008.5
20200119163434 28 268 7.0 11.0 0.00 0.23 0.00 89 1008.5
20200119161433 28 262 6.0 11.0 0.00 0.23 0.00 87 1008.1
20200119160433 28 270 8.0 15.0 0.00 0.23 0.00 87 1008.1
20200119155433 28 244 8.0 12.0 0.00 0.23 0.00 86 1008.1
20200119154433 28 268 8.0 15.0 0.00 0.23 0.00 87 1007.8
20200119153433 28 265 7.0 14.0 0.00 0.23 0.00 87 1007.8
20200119152433 28 270 10.0 19.0 0.00 0.23 0.00 87 1007.4
20200119151433 28 241 9.0 13.0 0.00 0.23 0.00 88 1007.4
20200119144433 29 276 11.0 18.0 0.00 0.23 0.00 87 1006.8
20200119143434 30 239 10.0 17.0 0.00 0.23 0.00 86 1006.8
20200119135433 30 274 11.0 16.0 0.00 0.23 0.00 86 1006.4
20200119134433 30 259 10.0 21.0 0.00 0.23 0.00 86 1006.1
20200119133433 30 265 12.0 21.0 0.00 0.23 0.00 88 1006.1
20200119125433 32 261 9.0 15.0 0.00 0.23 0.00 86 1005.4
20200119124433 32 255 9.0 16.0 0.00 0.23 0.00 84 1005.1
20200119121433 32 246 9.0 13.0 0.00 0.23 0.00 88 1004.4
20200119120433 32 241 9.0 15.0 0.00 0.23 0.00 88 1004.4
20200119114434 32 289 9.0 16.0 0.00 0.23 0.00 88 1004.1
20200119112433 32 235 8.0 13.0 0.00 0.23 0.00 89 1003.7
20200119111433 32 298 8.0 18.0 0.00 0.23 0.00 89 1003.4
20200119110433 32 261 8.0 16.0 0.00 0.23 0.00 87 1003.4
20200119105433 32 257 8.0 13.0 0.00 0.23 0.00 87 1003.0
20200119103433 32 280 6.0 13.0 0.00 0.23 0.00 87 1002.7
20200119102433 32 250 6.0 10.0 0.00 0.23 0.00 86 1002.7
20200119101433 33 288 7.0 15.0 0.00 0.23 0.00 87 1002.4
20200119093433 33 289 6.0 11.0 0.00 0.23 0.00 88 1002.0
20200119092434 33 261 7.0 15.0 0.00 0.23 0.00 88 1001.7
20200119090433 33 244 6.0 9.0 0.01 0.23 0.00 91 1001.3
20200119084433 33 256 6.0 11.0 0.01 0.23 0.00 91 1001.3
20200119082433 33 264 6.0 12.0 0.01 0.23 0.00 92 1001.0
20200119080434 33 251 8.0 13.0 0.02 0.23 0.00 91 1001.0
20200119075433 34 276 9.0 18.0 0.01 0.22 0.00 91 1001.0
20200119072434 34 254 10.0 16.0 0.02 0.22 0.00 92 1000.7
20200119070433 34 251 9.0 14.0 0.02 0.21 0.00 94 1000.3
20200119064433 33 255 6.0 13.0 0.03 0.21 0.00 94 1000.3
20200119062433 34 321 7.0 12.0 0.03 0.20 0.00 92 1000.3
20200119061434 34 254 7.0 13.0 0.04 0.20 0.00 92 1000.0
20200119060433 34 262 7.0 12.0 0.04 0.19 0.00 92 1000.0
20200119053434 35 261 9.0 14.0 0.07 0.18 0.00 88 1000.0